Location: The Saddle
(36.8333°N, 80.3417°W)
Time: 16:49:24
(UTC-05:00)

X-37B - Pass Details

Date: 30 November 2023
Orbit: 277 x 277 km, 45.0° (Epoch: 01 November)

Event Time Altitude Azimuth Distance (km) Brightness Sun altitude
Rises 17:59:18 0° 252° (WSW) 1,905 6.4 -10.8°
Reaches altitude 10° 18:01:16 10° 260° (W) 1,095 4.4 -11.1°
Maximum altitude 18:03:37 44° 335° (NNW) 395 0.6 -11.6°
Enters shadow 18:04:55 21° 39° (NE) 689 1.4 -11.8°
